Powrót do katalogu

OPS 4682 DEB

AktywnyPO
NORAD 55115·DEBRIS·🇺🇸 United States

Wystrzelony Apr 3, 1965 z Vandenberg Space Force Base

Loading…

Następne Przeloty (najbliższe 24 godziny)

TLE

ŚwieżeSource: Space-Track

Epoka: Sep 14, 2026, 01:06 UTC

1 55115U 65027HE  26257.04604026  .00000808  00000-0  26882-2 0  9995
2 55115  90.2393   0.0855 0028640 114.1750 246.2370 12.99168968546796

Śledź OPS 4682 DEB w czasie rzeczywistym z AllMySat

Download on the App Store